Find Starlink 33545

NORAD ID: 62101 Int'l Des: 2024-220 Owner: SPXS Country: US Constellation: starlink operational
LEOCIRCULAR

Current View

Loading 3D Globe...

About Starlink 33545

Starlink 33545 (NORAD 62101) is a starlink constellation satellite (v2 mini) launched Nov 25, 2024 by SPXS of US. It operates in LEO, CIRCULAR orbit with a mass of 530.00 kg.

Upcoming Passes

Passes for default location (London). Set your location on the main map for personalized predictions.

Altitude History

Loading altitude history...

Two-Line Element Set

1 62101U 24220P 26237.31821026 .00014612 00000-0 53936-3 0 9996
2 62101 42.9984 332.9646 0001754 159.8900 200.2021 15.27586908 98814
Epoch: Aug 25, 2026 • Age: 11 hours

Current Status

Altitude 483.5 km
Apogee / Perigee N/A
Velocity 7.63 km/s
Sub-Earth Point 3.41°N, 80.32°E
Launch Date Nov 25, 2024
Age 1.7 years
Type internet

Technical Details

Classification Payload
Mass 530.00 kg
Dry Mass 500.00 kg
Total Mass 530.00 kg
Length 0.30 m
Diameter 4.10 m
Span 29.00 m
Shape Box + pan
Manufacturer SPXS
Bus Type Starlink V2MO
Phase Status In Orbit
Owner/State SPXS/US

Most Searched